STARLINK-4687 (53784 NORAD) Tracking and Keplerian Element Data

This shows tracking and keplerian element data for the satellite.

Feedback or suggestion? Click here.




ElementValue
Catalog53784
NameSTARLINK-4687
Epoch Orbit1105
Epoch Day325.25001157
Epoch Year2022
RAAN281.0936
Inclination53.2176
Eccentricity0.0001821
Argument of Perigee35.007
Mean Anonmoly55.3623
Mean Motion15.0965424
Decay Rate-0.0084186
L11 53784U 22111M 22325.25001157 -.00841860 00000+0 -55546-1 0 9993
L22 53784 53.2176 281.0936 0001821 35.0070 55.3623 15.09654240 11056



Live tracking and technical data element details for STARLINK-4687 (NORAD 53784). STARLINK-4687 can be tracked NOW for your location showing map with azimuth and elevation plus other details from your city location.







IsCatalogInMostPopularTable: catalog: 53784, numindb: -1

Insert: records affected: 1


GetName: 53784 STARLINK-4687

Hit Count: inserted at: Thu, 08 Dec 2022 09:43:06 GMT